When you browse on this site, cookies collect data to enhance your experience and personalize the content and advertising you see.
Visit our Privacy Policy to learn more. By continuing to use the site, you agree to this use of cookies and data.
EN

Hourly Weather Korytki

Today, 11 August, Tuesday

Time Temperature Precipitation Wind Pressure Humidity
00:00 +18°C° 0 mm 3 mps 748 mmHg 92%
01:00 +17°C° 0 mm 3 mps 748 mmHg 91%
02:00 +17°C° 0 mm 3 mps 749 mmHg 90%
03:00 +16°C° 0 mm 3 mps 749 mmHg 90%
04:00 +14°C° 0 mm 3 mps 749 mmHg 89%
05:00 +13°C° 0 mm 3 mps 749 mmHg 88%
06:00 +14°C° 0 mm 3 mps 749 mmHg 85%
07:00 +16°C° 0 mm 3 mps 749 mmHg 83%
08:00 +17°C° 0 mm 3 mps 749 mmHg 81%
09:00 +19°C° 0 mm 3 mps 750 mmHg 76%
10:00 +20°C° 0 mm 4 mps 750 mmHg 72%
11:00 +22°C° 0 mm 4 mps 750 mmHg 67%
12:00 +22°C° 0 mm 4 mps 750 mmHg 64%
13:00 +22°C° 0 mm 5 mps 750 mmHg 61%
14:00 +23°C° 0 mm 5 mps 750 mmHg 58%
15:00 +22°C° 0 mm 5 mps 750 mmHg 59%
16:00 +22°C° 0 mm 5 mps 750 mmHg 60%
17:00 +21°C° 0 mm 4 mps 750 mmHg 61%
18:00 +20°C° 0 mm 4 mps 750 mmHg 67%
19:00 +18°C° 0 mm 3 mps 750 mmHg 72%
20:00 +17°C° 0 mm 3 mps 750 mmHg 78%
21:00 +16°C° 0 mm 3 mps 750 mmHg 80%
22:00 +14°C° 0 mm 3 mps 750 mmHg 81%
23:00 +13°C° 0 mm 3 mps 751 mmHg 83%

Tomorrow, 12 August, Wednesday

Time Temperature Precipitation Wind Pressure Humidity
00:00 +14°C° 0 mm 2 mps 751 mmHg 84%
01:00 +13°C° 0 mm 2 mps 751 mmHg 85%
02:00 +13°C° 0 mm 2 mps 751 mmHg 86%
03:00 +12°C° 0 mm 2 mps 751 mmHg 88%
04:00 +12°C° 0 mm 2 mps 751 mmHg 90%
05:00 +10°C° 0 mm 2 mps 751 mmHg 92%
06:00 +13°C° 0 mm 2 mps 751 mmHg 88%
07:00 +14°C° 0 mm 2 mps 751 mmHg 83%
08:00 +16°C° 0 mm 2 mps 751 mmHg 78%
09:00 +17°C° 0 mm 2 mps 751 mmHg 73%
10:00 +18°C° 0 mm 3 mps 752 mmHg 67%
11:00 +20°C° 0 mm 3 mps 752 mmHg 61%
12:00 +20°C° 0 mm 3 mps 751 mmHg 59%
13:00 +21°C° 0 mm 3 mps 751 mmHg 57%
14:00 +21°C° 0 mm 3 mps 751 mmHg 54%
15:00 +21°C° 0 mm 3 mps 751 mmHg 56%
16:00 +21°C° 0 mm 3 mps 751 mmHg 58%
17:00 +20°C° 0 mm 3 mps 751 mmHg 61%
18:00 +19°C° 0 mm 3 mps 751 mmHg 67%
19:00 +17°C° 0 mm 2 mps 751 mmHg 74%
20:00 +15°C° 0 mm 2 mps 750 mmHg 81%
21:00 +15°C° 0 mm 2 mps 751 mmHg 83%
22:00 +14°C° 0 mm 2 mps 751 mmHg 85%
23:00 +13°C° 0 mm 2 mps 751 mmHg 87%

Day after tomorrow, 13 August, Thursday

Time Temperature Precipitation Wind Pressure Humidity
00:00 +13°C° 0 mm 2 mps 751 mmHg 88%
01:00 +12°C° 0 mm 1 mps 751 mmHg 88%
02:00 +12°C° 0 mm 1 mps 751 mmHg 89%
03:00 +11°C° 0 mm 1 mps 750 mmHg 90%
04:00 +11°C° 0 mm 1 mps 750 mmHg 90%
05:00 +11°C° 0 mm 1 mps 750 mmHg 91%
06:00 +13°C° 0 mm 1 mps 750 mmHg 85%
07:00 +14°C° 0 mm 1 mps 750 mmHg 80%
08:00 +16°C° 0 mm 1 mps 750 mmHg 74%
09:00 +19°C° 0 mm 1 mps 750 mmHg 69%
10:00 +20°C° 0 mm 1 mps 750 mmHg 64%
11:00 +21°C° 0 mm 1 mps 750 mmHg 59%
12:00 +22°C° 0 mm 1 mps 750 mmHg 58%
13:00 +22°C° 0 mm 1 mps 749 mmHg 57%
14:00 +23°C° 0 mm 1 mps 749 mmHg 55%
15:00 +23°C° 0 mm 1 mps 749 mmHg 56%
16:00 +22°C° 0 mm 1 mps 749 mmHg 57%
17:00 +22°C° 0 mm 1 mps 749 mmHg 58%
18:00 +21°C° 0 mm 1 mps 749 mmHg 64%
19:00 +19°C° 0 mm 1 mps 748 mmHg 70%
20:00 +17°C° 0 mm 2 mps 748 mmHg 77%
21:00 +16°C° 0 mm 2 mps 748 mmHg 79%
22:00 +15°C° 0 mm 2 mps 748 mmHg 81%
23:00 +14°C° 0 mm 2 mps 748 mmHg 84%

14 August, Friday

Time Temperature Precipitation Wind Pressure Humidity
00:00 +14°C° 0 mm 2 mps 748 mmHg 86%
01:00 +13°C° 0 mm 2 mps 749 mmHg 88%
02:00 +13°C° 0 mm 2 mps 749 mmHg 90%
03:00 +12°C° 0 mm 2 mps 749 mmHg 91%
04:00 +12°C° 0 mm 2 mps 748 mmHg 91%
05:00 +12°C° 0 mm 2 mps 748 mmHg 92%
06:00 +14°C° 0 mm 2 mps 748 mmHg 87%
07:00 +15°C° 0 mm 2 mps 748 mmHg 82%
08:00 +17°C° 0 mm 2 mps 748 mmHg 77%
09:00 +18°C° 0 mm 2 mps 748 mmHg 72%
10:00 +20°C° 0 mm 3 mps 749 mmHg 66%
11:00 +22°C° 0 mm 3 mps 749 mmHg 60%
12:00 +22°C° 0 mm 3 mps 749 mmHg 58%
13:00 +24°C° 0 mm 3 mps 748 mmHg 55%
14:00 +24°C° 0 mm 3 mps 748 mmHg 52%
15:00 +24°C° 0 mm 2 mps 748 mmHg 53%
16:00 +24°C° 0 mm 2 mps 748 mmHg 54%
17:00 +24°C° 0 mm 2 mps 747 mmHg 55%
18:00 +21°C° 0 mm 2 mps 747 mmHg 61%
19:00 +19°C° 0 mm 2 mps 747 mmHg 68%
20:00 +18°C° 0 mm 2 mps 747 mmHg 74%
21:00 +17°C° 0 mm 2 mps 747 mmHg 76%
22:00 +16°C° 0 mm 2 mps 748 mmHg 77%
23:00 +16°C° 0 mm 2 mps 748 mmHg 79%

15 August, Saturday

Time Temperature Precipitation Wind Pressure Humidity
00:00 +15°C° 0 mm 2 mps 748 mmHg 80%
01:00 +15°C° 0 mm 2 mps 748 mmHg 80%
02:00 +15°C° 0 mm 2 mps 748 mmHg 81%
03:00 +14°C° 0 mm 2 mps 747 mmHg 83%
04:00 +14°C° 0 mm 2 mps 747 mmHg 86%
05:00 +13°C° 0 mm 2 mps 747 mmHg 88%
06:00 +15°C° 0 mm 2 mps 747 mmHg 84%
07:00 +16°C° 0 mm 2 mps 748 mmHg 80%
08:00 +18°C° 0 mm 2 mps 748 mmHg 75%
09:00 +19°C° 0 mm 2 mps 748 mmHg 69%
10:00 +21°C° 0 mm 2 mps 748 mmHg 63%
11:00 +23°C° 0 mm 2 mps 748 mmHg 57%
12:00 +24°C° 0 mm 2 mps 748 mmHg 54%
13:00 +25°C° 0 mm 2 mps 747 mmHg 52%
14:00 +25°C° 0 mm 2 mps 747 mmHg 49%
15:00 +25°C° 0 mm 2 mps 747 mmHg 50%
16:00 +25°C° 0 mm 2 mps 747 mmHg 51%
17:00 +25°C° 0 mm 2 mps 747 mmHg 53%
18:00 +23°C° 0 mm 2 mps 747 mmHg 59%
19:00 +21°C° 0 mm 1 mps 746 mmHg 65%
20:00 +19°C° 0 mm 1 mps 746 mmHg 71%
21:00 +18°C° 0 mm 1 mps 746 mmHg 73%
22:00 +16°C° 0 mm 1 mps 747 mmHg 75%
23:00 +15°C° 0 mm 1 mps 747 mmHg 77%

16 August, Sunday

Time Temperature Precipitation Wind Pressure Humidity
00:00 +15°C° 0 mm 1 mps 747 mmHg 78%
01:00 +14°C° 0 mm 0 mps 747 mmHg 79%
02:00 +13°C° 0 mm 0 mps 747 mmHg 79%
03:00 +13°C° 0 mm 0 mps 747 mmHg 80%
04:00 +13°C° 0 mm 0 mps 747 mmHg 81%
05:00 +13°C° 0 mm 0 mps 747 mmHg 81%
06:00 +15°C° 0 mm 0 mps 747 mmHg 76%
07:00 +16°C° 0 mm 0 mps 747 mmHg 72%
08:00 +20°C° 0 mm 1 mps 747 mmHg 67%
09:00 +22°C° 0 mm 1 mps 747 mmHg 63%
10:00 +23°C° 0 mm 1 mps 747 mmHg 59%
11:00 +25°C° 0 mm 1 mps 747 mmHg 55%
12:00 +25°C° 0 mm 1 mps 747 mmHg 53%
13:00 +26°C° 0 mm 1 mps 747 mmHg 52%
14:00 +26°C° 0 mm 1 mps 747 mmHg 50%
15:00 +26°C° 0 mm 2 mps 747 mmHg 53%
16:00 +26°C° 0 mm 2 mps 747 mmHg 56%
17:00 +26°C° 0 mm 2 mps 746 mmHg 58%
18:00 +24°C° 0 mm 2 mps 746 mmHg 66%
19:00 +21°C° 0 mm 2 mps 746 mmHg 73%
20:00 +19°C° 0 mm 2 mps 747 mmHg 81%
21:00 +19°C° 0 mm 2 mps 747 mmHg 83%
22:00 +18°C° 0 mm 2 mps 747 mmHg 85%
23:00 +18°C° 0 mm 1 mps 747 mmHg 87%
Show more